Powrót do katalogu

CZ-6A DEB

AktywnySSO
NORAD 56284·DEBRIS·🇨🇳 China

Wystrzelony Nov 11, 2022 z Taiyuan Satellite Launch Center

Loading…

Następne Przeloty (najbliższe 24 godziny)

TLE

ŚwieżeSource: Space-Track

Epoka: Sep 14, 2026, 14:00 UTC

1 56284U 22151ADC 26257.58334863  .00003710  00000-0  75602-3 0  9992
2 56284  98.5156 296.4541 0131748  45.6385 315.5516 14.56257996182907

Śledź CZ-6A DEB w czasie rzeczywistym z AllMySat

Download on the App Store